Location: Moulis
(42.9609°N, 1.0909°E)
Time: 23:31:25
(UTC+00:00)

Cosmos 2151 - Visible Passes

Search period start: 12 March 2026 00:00
Search period end: 22 March 2026 00:00
Orbit: 557 x 576 km, 82.5° (Epoch: 12 March)

Date Brightness Start Highest point End Pass type
(mag) Time Alt. Az. Time Alt. Az. Time Alt. Az.
12 Mar 6.3 04:11:36 10° NE 04:13:20 12° ENE 04:15:04 10° E visible
12 Mar 6.6 19:50:37 10° WNW 19:51:09 10° WNW 19:51:40 10° WNW visible
13 Mar 6.1 04:11:51 10° NNE 04:14:17 15° ENE 04:16:43 10° ESE visible
14 Mar 5.8 04:12:18 10° NNE 04:15:13 18° ENE 04:18:08 10° ESE visible
15 Mar 5.5 04:12:50 10° NNE 04:16:08 23° ENE 04:19:24 10° SE visible
16 Mar 5.1 04:13:27 10° NNE 04:17:01 28° ENE 04:20:35 10° SE visible
17 Mar 4.6 04:14:07 10° N 04:17:54 34° ENE 04:21:41 10° SE visible
18 Mar 4.2 04:14:49 10° N 04:18:46 42° ENE 04:22:42 10° SSE visible
19 Mar 3.7 04:15:34 10° N 04:19:37 54° E 04:23:40 10° SSE visible
20 Mar 3.2 04:16:19 10° N 04:20:27 68° E 04:24:34 10° SSE visible
21 Mar 2.8 04:17:07 10° N 04:21:16 86° E 04:25:24 10° S visible
